Flag for Venezuela Weather past 2 weeks in Caracas, Venezuela

Now
81 °F

Scattered clouds.


Feels Like: 87 °F
Forecast: 64 / 79 °F
Wind: 6 mph from Northeast

Location: Caracas / Maiquetia Aerop. Intl. Simon Bolivar

Current Time: Apr 1, 2015 at 10:43:02 AM

Latest Report: Apr 1, 2015 at 9:30 AM


Visibility: N/A

Pressure: 29.95 "Hg

Humidity: 89%

Dew point: 77 °F

Location of CaracasLocation

Historic Weather in Caracas — Graph

°F

Caracas temperature yesterday

Maximum temperature yesterday: 86 °F (at 1:30 PM)
Minimum temperature yesterday: 73 °F (at 3:30 AM)
Average temperature yesterday: 79 °F

Past Weeks' High & Low Weather Summary

 TemperatureHumidityPressure
High88 °F (Mar 23, 1:30 PM)100% (Mar 21, 7:30 PM)30.04 "Hg (Mar 21, 7:30 PM)
Low73 °F (Mar 21, 4:30 AM)35% (Mar 17, 9:30 AM)29.86 "Hg (Mar 31, 5:30 PM)
Average80 °F78%29.96 "Hg
* Reported Mar 17 9:30 AM — Apr 1 9:30 AM, Caracas, Weather by CustomWeather, © 2015

Note: Actual official high and low records may vary slightly from our data, if they occured in-between our weather recording intervals... More about our weather records

Advertising

Caracas weather history for previous 24 hours

 ConditionsComfort  
Time TempWeatherWind HumidityBarometerVisibility
9:30 AM
Wed, Apr 1
81 °FScattered clouds.6 mph89%29.95 "HgN/A
8:30 AM81 °FPassing clouds.2 mph66%29.98 "HgN/A
7:30 AM75 °FPassing clouds.No wind78%29.95 "HgN/A
6:30 AM73 °FPassing clouds.No wind89%29.92 "HgN/A
5:30 AM73 °FPassing clouds.3 mph89%29.92 "HgN/A
4:30 AM77 °FPassing clouds.2 mph79%29.92 "HgN/A
3:30 AM77 °FPassing clouds.No wind79%29.92 "HgN/A
2:30 AM77 °FPassing clouds.5 mph79%29.92 "HgN/A
1:30 AM77 °FPassing clouds.3 mph79%29.95 "HgN/A
12:30 AM77 °FPassing clouds.1 mph83%29.95 "HgN/A
11:30 PM
Tue, Mar 31
77 °FPassing clouds.1 mph79%29.95 "HgN/A
10:30 PM77 °FPassing clouds.No wind83%29.95 "HgN/A
9:30 PM77 °FPassing clouds.1 mph83%29.95 "HgN/A
8:30 PM77 °FPassing clouds.2 mph89%29.92 "HgN/A
7:30 PM77 °FPassing clouds.5 mph89%29.89 "HgN/A
6:30 PM79 °FPassing clouds.5 mph84%29.89 "HgN/A
5:30 PM84 °FPassing clouds.6 mph70%29.86 "HgN/A
4:30 PM84 °FPassing clouds.5 mph70%29.89 "HgN/A
3:30 PM84 °FPassing clouds.5 mph70%29.89 "HgN/A
2:30 PM84 °FPassing clouds.6 mph70%29.92 "HgN/A
1:30 PM86 °FPassing clouds.5 mph70%29.95 "HgN/A
12:30 PM84 °FPassing clouds.6 mph74%29.95 "HgN/A
11:30 AM84 °FPassing clouds.6 mph62%29.98 "HgN/A
10:30 AM84 °FPassing clouds.5 mph62%29.98 "HgN/A
Weather by CustomWeather, © 2015

See weather overviewHow to use our weather pages